This is the latest recevied weather packets stored in our database for station/object W4FXD. If no packets are shown the sender has not sent any weather packets the latest 10 day(s).
| Time | Temp. | Humidity | Pressure | Rain* | Wind** | Luminosity | Snow |
|---|---|---|---|---|---|---|---|
| 1777907516 | 17.78° C | 56% | 1017.1 hPa | 0 mm | - | 767 W/m² | - |
| 1777907213 | 17.78° C | 58% | 1017.3 hPa | 0 mm | - | 752 W/m² | - |
| 1777906910 | 17.78° C | 58% | 1017.4 hPa | 0 mm | - | 542 W/m² | - |
| 1777906607 | 17.22° C | 59% | 1017.3 hPa | 0 mm | - | 650 W/m² | - |
| 1777906302 | 16.67° C | 59% | 1017.4 hPa | 0 mm | - | 647 W/m² | - |
| 1777906000 | 16.67° C | 61% | 1017.4 hPa | 0 mm | - | 506 W/m² | - |
| 1777905696 | 16.67° C | 59% | 1017.6 hPa | 0 mm | - | 544 W/m² | - |
| 1777905393 | 16.11° C | 62% | 1017.5 hPa | 0 mm | - | 514 W/m² | - |
| 1777905091 | 15.56° C | 61% | 1017.6 hPa | 0 mm | - | 632 W/m² | - |
| 1777904788 | 15.56° C | 61% | 1017.9 hPa | 0 mm | - | 571 W/m² | - |
| 1777904485 | 16.11° C | 62% | 1017.7 hPa | 0 mm | - | 511 W/m² | - |
| 1777904181 | 16.11° C | 64% | 1017.9 hPa | 0 mm | - | 449 W/m² | - |
| 1777903879 | 15.56° C | 67% | 1017.9 hPa | 0 mm | - | 471 W/m² | - |
| 1777903575 | 15.56° C | 68% | 1017.9 hPa | 0 mm | - | 466 W/m² | - |
| 1777903271 | 14.44° C | 69% | 1017.9 hPa | 0 mm | - | 373 W/m² | - |
| 1777902968 | 14.44° C | 68% | 1017.9 hPa | 0 mm | - | 429 W/m² | - |
| 1777902664 | 13.89° C | 70% | 1018 hPa | 0 mm | - | 362 W/m² | - |
| 1777902362 | 13.89° C | 69% | 1018 hPa | 0 mm | - | 379 W/m² | - |
| 1777902058 | 13.89° C | 70% | 1018.1 hPa | 0 mm | - | 364 W/m² | - |
| 1777901757 | 13.89° C | 70% | 1018.1 hPa | 0 mm | - | 355 W/m² | - |
| 1777901454 | 13.33° C | 70% | 1018 hPa | 0 mm | - | 317 W/m² | - |
| 1777901152 | 13.33° C | 69% | 1018.3 hPa | 0 mm | - | 308 W/m² | - |
| 1777900849 | 13.33° C | 69% | 1017.9 hPa | 0 mm | - | 268 W/m² | - |
| 1777900546 | 12.78° C | 72% | 1017.9 hPa | 0 mm | - | 232 W/m² | - |
| 1777900243 | 13.33° C | 74% | 1018 hPa | 0 mm | - | 229 W/m² | - |
* Rain latest hour (hover to see other rain measurements)
** Current wind speed in m/s (hover to see current wind gust speed)